Location: ???
(60.6398°N, 46.9067°E)
Time: 18:28:16
(UTC+00:00)

H-2A R/B - Pass Details

Date: 08 December 2019
Orbit: 733 x 837 km, 98.2° (Epoch: 16 January)

Event Time Altitude Azimuth Distance (km) Brightness Sun altitude
Exits shadow 17:15:45 20° 323° (NW) 1,706 4.2 -37.9°
Drops below altitude 10° 17:17:27 10° 334° (NNW) 2,294 4.9 -38.1°
Sets 17:19:51 0° 341° (NNW) 3,210 5.7 -38.4°
